[[{"header":{"parameterUnit":"m.s-1","parameterCategory":1,"la1":30.2991,"la2":30.254,"lo1":-89.0895,"lo2":-89.0444,"dy":0.0017,"dx":0.0017,"nx":28,"ny":28,"refTime":"2024-07-29T03:00:00:Z","depth":0,"parameterNumber":2,"parameterNumberName":"U-component_of_WINDS"},"data":[0,0,0,0,0,0,0,0,0,0,0,0,0,0,0,0,0,0,0,0,0,0,0,0,0,0,0,0,0,0,0,0,0,0,0,0,0,0,0,0,0,0,0,0,0,0,0,0,0,0,0,0,0,0,0,0,0,0,1.9327,1.9328,0,1.9481,1.9482,1.9484,1.9521,1.952,1.9519,1.9518,1.9679,1.9684,1.9689,0,0,0,0,0,0,0,0,0,0,0,0,0,1.9067,1.9072,1.9327,1.9329,1.933,1.948,1.9482,1.9484,1.9522,1.952,1.9519,1.9518,1.9677,1.9683,1.9689,0,0,0,0,0,0,0,0,0,0,0,0,0,1.9197,1.9074,1.9326,1.9367,1.9372,1.948,1.9482,1.9485,1.9522,1.952,1.9519,1.9517,1.9675,1.9682,1.969,1.9769,0,0,1.9714,1.9717,0,0,0,0,0,0,0,0,1.9189,1.9206,1.9359,1.9364,1.937,1.948,1.945,1.958,1.9522,1.9465,1.9518,1.9517,1.9614,1.9627,1.9659,1.9777,1.9783,1.9715,1.972,1.9723,1.9725,0,0,0,0,0,0,0,1.918,1.92,1.9388,1.9361,1.9368,1.9378,1.9395,1.9475,1.9546,1.947,1.9473,1.9491,1.9617,1.9651,1.9663,1.9786,1.9715,1.9721,1.9726,1.9729,1.9975,1.9977,0,0,0,0,0,0,1.9164,1.9192,1.9383,1.9392,1.9274,1.9384,1.9403,1.9446,1.9546,1.9559,1.9492,1.9492,1.9639,1.9654,1.9669,1.9767,1.9723,1.973,1.9735,1.9974,1.9976,1.9978,0,0,0,0,0,0,1.9158,1.918,1.9377,1.9293,1.9319,1.939,1.9439,1.945,1.9485,1.9562,1.9575,1.9514,1.9638,1.9658,1.9744,1.9773,1.9734,1.9741,1.9971,1.9974,1.9977,1.9964,0,0,0,0,0,0,1.915,1.9178,1.9208,1.9293,1.9323,1.9448,1.9441,1.9454,1.9498,1.9499,1.9586,1.9599,1.9638,1.9732,1.9751,1.9783,1.9747,1.9969,1.9973,1.9976,1.9962,1.9966,1.9969,0,0,0,0,0,1.9141,1.9199,1.921,1.9232,1.9362,1.9449,1.9466,1.951,1.95,1.9531,1.9581,1.9596,1.9767,1.974,1.9763,1.9797,1.9967,1.9972,1.9976,1.996,1.9965,1.9969,0,0,0,0,0,0,1.9116,1.9211,1.9224,1.9311,1.9372,1.9455,1.9496,1.9514,1.9579,1.9578,1.963,1.9649,1.9731,1.9773,1.9742,1.9879,1.9867,1.9876,1.9848,1.9853,1.9856,1.9844,1.9753,0,0,0,0,0,1.9121,1.9183,1.9263,1.9332,1.9362,1.9424,1.9463,1.9492,1.9557,1.9583,1.9639,1.9703,1.9771,1.9815,1.9882,1.9969,1.9988,2.0004,2.0007,2.001,2.0017,2.0065,2.0073,1.9992,1.9991,1.9991,0,0,1.9131,1.9191,1.9227,1.9329,1.9379,1.9443,1.9445,1.9513,1.9561,1.9594,1.9678,1.9721,1.9796,1.9882,1.9923,1.992,2.0043,2.0015,2.0017,2.0022,2.007,2.0078,2.0085,1.9994,1.9994,1.9993,0,0,1.9182,1.9234,1.9296,1.9347,1.9423,1.9464,1.9479,1.956,1.959,1.9675,1.9701,1.9759,1.9876,1.9927,1.9969,2.004,2.0056,2.006,2.0079,2.0125,2.0132,2.0138,2.0162,2.017,2.0067,2.0067,2.0067,0,1.9185,1.9282,1.9327,1.9393,1.9437,1.9469,1.9534,1.9581,1.9675,1.9705,1.97,1.9846,1.9898,1.9997,2.0014,2.0047,2.0066,2.005,2.0127,2.0134,2.014,2.0163,2.0173,2.0067,2.0067,2.0067,2.0067,0,1.9281,1.9348,1.939,1.9479,1.9528,1.9593,1.9648,1.9693,1.9717,1.9758,1.9844,1.9909,1.9989,2.0015,2.004,2.0117,2.0112,2.0117,2.0106,2.0146,2.017,2.0179,2.0067,2.0067,2.0067,2.0067,0,0,1.9319,1.9433,1.9447,1.9488,1.9575,1.9628,1.9695,1.9772,1.9809,1.9873,1.993,2.0028,2.0032,2.0079,2.011,2.0151,2.0202,2.0151,2.0153,2.0157,2.0291,2.0286,2.0296,2.0214,2.0216,2.0218,2.0284,0,1.938,1.9499,1.9542,1.964,1.9702,1.9734,1.9793,1.9852,1.9893,1.9952,1.9998,2.0065,2.0066,2.0095,2.0137,2.0187,2.023,2.0183,2.0268,2.027,2.0246,2.0308,2.0304,2.0363,2.0294,2.0295,2.0296,0,1.9466,1.953,1.9634,1.9713,1.9741,1.9792,1.9866,1.9923,1.9991,2.0018,2.0071,2.0099,2.0171,2.0157,2.0256,2.0223,2.0261,2.029,2.0294,2.0302,2.0284,2.0317,2.0383,2.0391,2.0311,2.031,2.0309,0,1.9482,1.9595,1.9672,1.9706,1.98,1.9835,1.9876,1.9943,1.9987,2.0053,2.0082,2.0155,2.0195,2.0251,2.0299,2.0284,2.0394,2.0384,2.0418,2.0416,2.0438,2.0436,2.0509,2.0464,2.0464,2.0464,2.0464,0,1.9544,1.9606,1.968,1.9727,1.9797,1.9847,1.9916,1.9959,2.0019,2.0075,2.0108,2.016,2.0221,2.0281,2.0319,2.0395,2.0413,2.0437,2.0446,2.0433,2.043,2.0457,2.0454,2.0466,2.0466,2.0465,2.0465,0,1.9572,1.9625,1.971,1.9792,1.9814,1.9863,1.9933,1.9981,2.0023,2.0094,2.0114,2.018,2.0253,2.0306,2.0401,2.0426,2.0507,2.0517,2.0483,2.0488,2.0518,2.0514,2.0611,2.0626,2.0572,2.0572,2.0572,0,1.9608,1.9656,1.9743,1.9783,1.9824,1.9888,1.9932,1.9984,2.0029,2.0111,2.0148,2.0223,2.0285,2.04,2.0457,2.053,2.0541,2.057,2.0552,2.0537,2.054,2.0536,2.0541,2.0572,2.0572,2.0573,2.0573,0,1.9664,1.9688,1.9751,1.9823,1.9875,1.9934,1.9994,2.0025,2.0087,2.0136,2.0211,2.0259,2.0355,2.0429,2.0507,2.055,2.0572,2.0578,2.059,2.0576,2.0554,2.0565,2.0489,2.0575,2.0575,2.0575,2.0575,2.0575,1.9697,1.9741,1.9809,1.9878,1.9929,1.9984,2.0032,2.0081,2.0143,2.0224,2.0251,2.0328,2.0396,2.0503,2.0547,2.0608,2.0607,2.0624,2.0628,2.0631,2.063,2.0546,2.0623,2.0623,2.0623,2.0623,2.0623,0,1.9754,1.98,1.9863,1.9945,2.0,2.0015,2.0083,2.0127,2.0194,2.0255,2.0316,2.0401,2.0473,2.0536,2.0611,2.0648,2.0659,2.0665,2.0663,2.0672,2.0627,2.0609,2.0654,2.0654,2.0654,2.0654,2.0654,2.0654,1.979,1.9866,1.9897,1.9999,2.0044,2.0119,2.0156,2.0207,2.0256,2.035,2.0409,2.045,2.0512,2.0592,2.0658,2.0675,2.0701,2.0704,2.0723,2.0679,2.0675,2.0671,2.0655,2.0709,2.0709,2.0763,2.0764,2.0764]},{"header":{"parameterUnit":"m.s-1","parameterCategory":1,"la1":30.2991,"la2":30.254,"lo1":-89.0895,"lo2":-89.0444,"dy":0.0017,"dx":0.0017,"nx":28,"ny":28,"refTime":"2024-07-29T03:00:00:Z","depth":0,"parameterNumber":3,"parameterNumberName":"V-component_of_WINDS"},"data":[0,0,0,0,0,0,0,0,0,0,0,0,0,0,0,0,0,0,0,0,0,0,0,0,0,0,0,0,0,0,0,0,0,0,0,0,0,0,0,0,0,0,0,0,0,0,0,0,0,0,0,0,0,0,0,0,0,0,4.9549,4.9549,0,4.9545,4.9545,4.9545,4.9478,4.9476,4.9474,4.9473,4.9468,4.9469,4.9471,0,0,0,0,0,0,0,0,0,0,0,0,0,4.9498,4.9499,4.9549,4.9549,4.9549,4.9545,4.9545,4.9545,4.9478,4.9476,4.9474,4.9472,4.9467,4.9469,4.9471,0,0,0,0,0,0,0,0,0,0,0,0,0,4.951,4.95,4.9549,4.9515,4.9512,4.9545,4.9545,4.9545,4.9478,4.9476,4.9473,4.9471,4.9467,4.9469,4.9471,4.9536,0,0,4.9478,4.9479,0,0,0,0,0,0,0,0,4.9509,4.9512,4.952,4.9517,4.9514,4.9509,4.9525,4.9542,4.9479,4.9491,4.9473,4.947,4.9484,4.9484,4.9489,4.9536,4.9536,4.9478,4.9479,4.948,4.9481,0,0,0,0,0,0,0,4.9508,4.9511,4.9547,4.952,4.9517,4.95,4.9499,4.9528,4.9502,4.949,4.9485,4.9485,4.9482,4.9487,4.9489,4.9536,4.9478,4.948,4.9481,4.9482,4.9635,4.9637,0,0,0,0,0,0,4.9512,4.9511,4.9547,4.9547,4.9505,4.9503,4.9501,4.9513,4.9501,4.9497,4.9488,4.9482,4.9485,4.9486,4.9488,4.9563,4.948,4.9482,4.9484,4.9632,4.9635,4.9638,0,0,0,0,0,0,4.9512,4.9516,4.9547,4.9528,4.9531,4.9506,4.952,4.9515,4.952,4.95,4.9495,4.9498,4.9483,4.9485,4.9525,4.9562,4.9483,4.9485,4.9629,4.9633,4.9637,4.9713,0,0,0,0,0,0,4.951,4.9516,4.9541,4.9529,4.9532,4.9584,4.9522,4.9516,4.9524,4.9517,4.9508,4.9504,4.9481,4.9522,4.9527,4.9563,4.9487,4.9625,4.9631,4.9635,4.9707,4.9719,4.9729,0,0,0,0,0,4.9509,4.9563,4.9543,4.9547,4.9562,4.9587,4.9588,4.956,4.9527,4.9552,4.9538,4.9505,4.9557,4.9526,4.9531,4.9569,4.9623,4.9629,4.9635,4.9702,4.9717,4.9729,0,0,0,0,0,0,4.9579,4.956,4.9538,4.9589,4.959,4.9575,4.9605,4.9577,4.9587,4.958,4.9545,4.9543,4.9588,4.9583,4.9549,4.9631,4.9584,4.9591,4.9633,4.9647,4.9658,4.9658,4.9489,0,0,0,0,0,4.9601,4.9623,4.9605,4.9652,4.9654,4.963,4.9639,4.9618,4.9617,4.9617,4.9606,4.9607,4.9623,4.9635,4.9649,4.9706,4.9703,4.9734,4.9746,4.9755,4.9762,4.9791,4.9805,4.9658,4.9658,4.9658,0,0,4.9646,4.9638,4.9654,4.9666,4.9664,4.9687,4.963,4.9657,4.9673,4.9621,4.9657,4.965,4.9648,4.9697,4.9717,4.9693,4.9801,4.9763,4.977,4.9772,4.9799,4.9812,4.9825,4.9662,4.9662,4.9661,0,0,4.9739,4.9736,4.9774,4.9773,4.9771,4.9755,4.9764,4.9754,4.9747,4.9783,4.9744,4.9763,4.9792,4.9792,4.9796,4.9889,4.9858,4.9895,4.9953,4.9982,4.9994,5.0004,5.0037,5.0049,4.9902,4.9902,4.9902,0,4.9795,4.9828,4.9797,4.9827,4.9833,4.9787,4.9825,4.9826,4.9828,4.9834,4.9807,4.9842,4.9838,4.9885,4.9908,4.9913,4.9922,4.9895,4.9995,5.0004,5.0013,5.0044,5.0057,4.9906,4.9906,4.9905,4.9905,0,4.9896,4.992,4.9951,4.9955,4.9965,4.9998,4.9973,4.9987,4.9965,4.9951,4.9988,4.9981,4.9993,5.0003,4.9981,5.0047,5.0032,5.0001,4.9953,5.0032,5.006,5.0072,4.9913,4.9911,4.991,4.9909,0,0,5.0033,5.0019,5.0031,5.0032,5.0026,5.0044,5.0076,5.0087,5.0099,5.0103,5.0128,5.0154,5.0125,5.0129,5.0107,5.0133,5.0207,5.0098,5.0097,5.0118,5.0278,5.0302,5.0316,5.0186,5.0188,5.019,5.0278,0,5.0122,5.0175,5.0149,5.0205,5.0226,5.0183,5.021,5.021,5.0198,5.0214,5.0201,5.022,5.018,5.0182,5.0206,5.0193,5.0238,5.0186,5.0209,5.021,5.021,5.033,5.0355,5.0438,5.0289,5.0291,5.0292,0,5.0233,5.0241,5.0299,5.0289,5.0297,5.0323,5.0331,5.0347,5.0345,5.0335,5.034,5.0313,5.0343,5.0296,5.0336,5.0302,5.031,5.0305,5.0307,5.0308,5.0256,5.0333,5.0464,5.0477,5.0309,5.0308,5.0307,0,5.0326,5.0351,5.0389,5.0392,5.0381,5.04,5.0396,5.0392,5.0401,5.0408,5.0413,5.0424,5.043,5.0439,5.0415,5.0383,5.0459,5.041,5.045,5.0451,5.0468,5.0467,5.0601,5.0474,5.0474,5.0474,5.0474,0,5.0427,5.0465,5.0431,5.0454,5.0495,5.0464,5.0505,5.0497,5.0494,5.0514,5.0478,5.0498,5.0465,5.0483,5.0464,5.05,5.0503,5.0496,5.049,5.0498,5.0499,5.0503,5.0496,5.0477,5.0477,5.0476,5.0475,0,5.0537,5.0516,5.0555,5.0542,5.054,5.057,5.0559,5.058,5.0566,5.0593,5.0597,5.0575,5.0594,5.0571,5.0587,5.0574,5.0624,5.061,5.0624,5.062,5.0662,5.0658,5.0802,5.0819,5.0682,5.0684,5.0685,0,5.0603,5.0631,5.0621,5.0632,5.0631,5.065,5.0658,5.063,5.064,5.064,5.0661,5.0676,5.0687,5.0718,5.0703,5.0716,5.0701,5.0751,5.0703,5.071,5.0701,5.07,5.0702,5.0761,5.0762,5.0764,5.0765,0,5.0722,5.071,5.0724,5.0734,5.0745,5.0752,5.0756,5.0767,5.0737,5.0751,5.0769,5.0777,5.0794,5.0809,5.0817,5.0813,5.0784,5.078,5.079,5.0799,5.0805,5.0802,5.065,5.0777,5.0776,5.0775,5.0774,5.0774,5.0811,5.0834,5.083,5.0847,5.0847,5.0851,5.087,5.0859,5.0873,5.0884,5.0867,5.0889,5.0887,5.0895,5.0895,5.0912,5.089,5.0905,5.0909,5.0912,5.0918,5.0804,5.0913,5.0913,5.0913,5.0912,5.0912,0,5.0928,5.0923,5.0939,5.0945,5.0958,5.093,5.0933,5.0945,5.0966,5.0966,5.0977,5.0998,5.1013,5.1,5.1012,5.1029,5.1015,5.1033,5.1031,5.103,5.0937,5.0927,5.1043,5.1043,5.1043,5.1043,5.1043,5.1043,5.099,5.1026,5.1014,5.1049,5.1045,5.1067,5.1071,5.1075,5.1075,5.11,5.1112,5.1103,5.1098,5.1109,5.1122,5.1117,5.1123,5.1145,5.1136,5.105,5.1037,5.1024,5.1015,5.1147,5.1147,5.1227,5.1228,5.1229]}]]